Orbital Elements at Epoch 2459200.5 (2020-Dec-17.0) TDB
Reference: JPL 24 (heliocentric ecliptic J2000)
Element | Value | Uncertainty (1-sigma) | Units |
e | .216274137412831 | 3.9905e-08 | |
a | 2.381149656946342 | 8.003e-09 | au |
q | 1.866168568839413 | 9.357e-08 | au |
i | 2.828142159416925 | 3.7002e-06 | deg |
node | 164.7638401437007 | 7.2804e-05 | deg |
peri | 217.5149061684939 | 7.3189e-05 | deg |
M | 253.5290547448233 | 9.1495e-06 | deg |
tp | 2459597.423739104281 (2022-Jan-17.92373910) | 3.5421e-05 | TDB |
period | 1342.080186618738 3.67 | 6.7661e-06 1.852e-08 | d yr |
n | .2682403060483224 | 1.3523e-09 | deg/d |
Q | 2.896130745053271 | 9.7339e-09 | au |
|
| | Orbit Determination Parameters
Additional Information
|